CZ-2F DEB (46392 NORAD) Tracking and Keplerian Element Data

This shows tracking and keplerian element data for the satellite.

Feedback or suggestion? Click here.




ElementValue
Catalog46392
NameCZ-2F DEB
Epoch Orbit311
Epoch Day268.42822363
Epoch Year2020
RAAN323.2807
Inclination49.8709
Eccentricity0.0109457
Argument of Perigee237.8077
Mean Anonmoly121.2609
Mean Motion15.49730837
Decay Rate0.00061984
L11 46392U 20063D 20268.42822363 .00061984 00000-0 85474-3 0 9992
L22 46392 49.8709 323.2807 0109457 237.8077 121.2609 15.49730837 3111

Live tracking and technical data element details for CZ-2F DEB (NORAD 46392). CZ-2F DEB can be tracked NOW for your location showing map with azimuth and elevation plus other details from your city location.

Track the satellite on the map from your city or location and see movement details for azimuth, elevation, latitude, longitude, range, height, and movement on the map or in text.







IsCatalogInMostPopularTable: catalog: 46392, numindb: 3
Update: records affected: 1



GetName: 46392 CZ-2F DEB

Hit Count: updated at: Sat, 26 Sep 2020 14:08:25 GMT